Regional Weather Roundup
Issued by NWS

Home | Current Version | Previous Version | Text Only | Print | Product List | Glossary Off
Versions: 1 2 3 4 5 6 7 8 9 10 11 12 13 14 15 16 17 18 19 20 21 22 23 24 25 26 27 28 29 30 31 32 33 34 35 36 37 38 39 40 41 42 43 44 45 46 47 48

000
ASUS45 KSLC 241210
RWRUT

UTAH REGIONAL WEATHER ROUNDUP
NATIONAL WEATHER SERVICE SALT LAKE CITY UT
500 AM MST WED DEC 24 2014

UTZ001>011-023>025-241300-

NORTHERN UTAH

CITY           SKY/WX    TMP DP  RH WIND       PRES   REMARKS
BRIGHAM CITY   CLOUDY    30  25  79 W6        30.19F WCI  24
HILL AFB       CLOUDY    26  13  58 E16       30.16F WCI  14
LOGAN          CLOUDY    27  20  75 SW3       30.17F
OGDEN          CLOUDY    27  17  66 S8        30.17F WCI  19
PROVO AIRPORT    N/A     25  18  74 SE7       30.21F WCI  17
SALT LAKE CITY   N/A     29  20  69 SE10      30.18F WCI  20
VERNAL           N/A     16  10  77 CALM      30.19F
WENDOVER         N/A     25  18  74 NE6       30.16F WCI  18
HEBER CITY       N/A     18  14  86 CALM      30.21F
WEST JORDAN    CLEAR     28  21  74 S15       30.19F WCI  17

$$

UTZ012>022-026-027-241300-

SOUTHERN/CENTRAL UTAH

CITY           SKY/WX    TMP DP  RH WIND       PRES   REMARKS
BLANDING         N/A     20  13  75 NE3       30.25F
BRYCE CANYON     N/A     14   7  73 NW6       30.18F WCI   5
CEDAR CITY       N/A     16  10  77 CALM      30.18F
DELTA            N/A     22  20  90 NE3       30.20F
MILFORD          N/A     19  13  77 SW7       30.19F WCI  10
MOAB/CYNLANDS    N/A     23  17  78 SE5       30.21F WCI  17
PRICE            N/A     18  10  71 N5        30.17F WCI  11
ST GEORGE        N/A     34  12  40 CALM      30.24S
KANAB            N/A     21  18  86 CALM      30.24F

$$

REGIONAL REPORTS     COLORADO/ARIZONA

CITY           SKY/WX    TMP DP  RH WIND       PRES   REMARKS
CRAIG, CO        N/A      0  -4  83 CALM      30.19F
GRAND JUNCTION   N/A     19  13  77 SE6       30.23F WCI  11
RIFLE            N/A     12   5  73 E6        30.26F WCI   3
MONTROSE         N/A     13   7  77 SE8       30.25F WCI   2
CORTEZ           N/A     16   9  74 NE8       30.15F WCI   5
PAGE, AZ         N/A     31  12  45 W5        30.20F WCI  26
GRAND CANYON     N/A     12   9  87 CALM      30.21S
KINGMAN          N/A     34  16  47 E12       30.19F WCI  25
FLAGSTAFF        N/A     18   6  59 CALM      30.18F

$$

REGIONAL REPORTS    NEVADA/IDAHO/WYOMING

CITY           SKY/WX    TMP DP  RH WIND       PRES   REMARKS
LAS VEGAS, NV    N/A     41  22  46 SW7       30.16F
ELY              N/A     20  16  84 S10       30.17F WCI   9
ELKO             N/A     24  21  88 CALM      30.10F
POCATELLO, ID  CLOUDY    34  22  61 CALM      30.08F
BURLEY           N/A     34  20  56 S12       30.04F WCI  25
EVANSTON, WY     N/A     15   8  73 SW12      30.11F WCI   2
ROCK SPRINGS     N/A     21  10  62 SW7       30.07F WCI  12

$$



USA.gov is the U.S. government's official web portal to all federal, state and local government web resources and services.